Location: Bush Observatory
(40.2653°N, 94.3194°W)
Time: 14:49:56
(UTC-05:00)

Daily predictions for brighter satellites

Satellite Brightness Start Highest point End
(mag) Time Altitude Azimuth Time Altitude Azimuth Time Altitude Azimuth
Cosmos 1864 Rocket 4.5 20:56:02 10° S 21:02:11 83° E 21:08:20 10° N
Cosmos 1939 Rocket 3.0 20:59:54 10° SSE 21:04:01 86° ENE 21:08:11 10° N
NOAA 11 4.5 21:00:28 10° SSE 21:05:45 53° ENE 21:11:03 10° N
Cosmos 2322 Rocket 2.7 21:00:36 10° NNW 21:06:00 47° ENE 21:11:23 10° SE
Cosmos 1242 Rocket 3.1 21:07:36 10° N 21:11:05 40° ENE 21:14:28 10° SSE
YAOGAN 6 3.1 21:07:35 10° S 21:11:15 64° W 21:14:55 10° NNW
SL-16 R/B 2.4 21:10:37 10° NNW 21:16:15 60° ENE 21:21:50 10° SE
Thor Agena Rocket 3.9 21:14:34 10° N 21:19:50 75° WNW 21:25:01 10° SSW
Cosmos 1340 Rocket 4.0 21:19:04 10° SSE 21:22:23 25° E 21:25:44 10° NE
BREEZE-M R/B 4.0 21:19:52 10° WSW 21:24:36 43° NNW 21:27:24 10° NE
GPS 2-05 Rocket1 4.5 21:23:27 10° SSW 21:25:31 16° SSE 21:26:55 13° SE
SJ-11-01 4.4 21:22:35 10° S 21:27:18 79° WSW 21:32:05 10° NNW
Spot 2 Rocket 3.5 21:26:26 10° SSE 21:31:28 89° E 21:36:32 10° NNW
Timation 2 Rocket 4.1 21:26:20 10° SSW 21:32:18 80° WNW 21:38:25 10° NNE
Resurs 1-3 4.2 21:29:29 10° S 21:33:47 57° W 21:38:07 10° NNW
Cosmos 468 Rocket 4.4 21:28:59 10° SSW 21:34:14 71° WNW 21:39:28 10° NNE
Meteor 1-13 Rocket 4.4 21:28:48 10° S 21:34:35 59° E 21:40:26 10° NNE
Cosmos 1937 Rocket 3.5 21:31:38 10° NNW 21:36:48 73° ENE 21:41:33 12° SSE
Cosmos 1763 Rocket 3.5 21:33:16 10° SSW 21:38:35 80° ESE 21:43:52 10° NNE
SPOT 5 4.5 21:37:55 11° ESE 21:40:36 18° ENE 21:43:36 10° NNE
Cosmos 1455 Rocket 3.6 21:36:55 10° N 21:41:05 42° ENE 21:44:20 16° SE
Cosmos 2298 Rocket 4.1 21:37:17 10° NNW 21:42:34 65° ENE 21:46:59 15° SSE
Cosmos 841 Rocket 3.5 21:39:58 10° S 21:45:08 63° ESE 21:50:21 10° NNE
Abrixas rocket 4.2 21:46:27 10° W 21:49:19 29° NNW 21:52:13 10° NE
ERS-2 3.9 21:46:22 10° SSW 21:49:36 29° W 21:52:53 10° NW
Cosmos 1975 Rocket 3.5 21:47:22 10° SSW 21:51:39 63° W 21:55:57 10° N
Helios 1A 4.4 21:51:27 16° ESE 21:53:31 23° ENE 21:56:47 10° NNE
Cosmos 1666 3.8 21:50:26 10° NNW 21:54:07 43° W 21:57:46 10° SSW
Cosmos 1975 4.3 21:50:55 10° NNW 21:54:38 36° W 21:58:19 10° SSW
Cosmos 2360 Rocket 2.6 21:49:35 10° NNW 21:55:06 51° ENE 21:58:58 19° SE
USA 32 4.1 21:49:56 10° N 21:55:09 64° E 21:59:24 15° SSE
BREEZE M DEB (TANK) 3.2 21:45:08 10° WNW 21:56:05 83° NNE 21:58:38 21° ESE
ISS -0.7 21:54:13 10° NW 21:56:18 16° NNW 21:58:23 10° NNE
Cosmos 1980 Rocket 4.5 21:53:20 10° NW 21:57:17 20° W 22:01:14 10° SW
Tiangong 2 1.8 21:54:15 10° W 21:57:21 51° N 22:00:15 11° ENE
Atlas Centaur 2 3.4 21:56:57 10° SW 21:57:56 11° SSW 21:58:45 10° S
Cosmos 2219 Rocket 4.0 21:54:19 10° N 21:58:00 18° NE 22:01:38 10° E
Meteor 2-20 4.4 21:51:53 10° N 21:58:03 81° E 22:03:40 13° S
Shenzhou-11 Module 1.8 21:56:46 10° WNW 21:59:45 85° SSW 22:01:05 29° ESE
USA 234 3.3 21:53:32 10° NE 22:00:08 89° SE 22:06:43 10° SW
Meteor 2-20 Rocket 4.5 21:56:44 10° N 22:02:51 68° E 22:07:38 17° SSE
Cosmos 292 Rocket 3.8 22:03:13 10° SSW 22:07:59 84° WNW 22:12:46 10° NNE
Cosmos 1544 Rocket 3.5 22:04:10 10° N 22:08:38 88° E 22:11:44 19° S
MetOp-A 4.1 22:04:53 16° SSE 22:09:10 89° ENE 22:14:34 10° NNW
Cosmos 1743 4.5 22:06:12 10° NNW 22:09:33 30° W 22:12:54 10° SSW
Meteor 2-9 Rocket 4.2 22:04:29 10° NNW 22:09:51 78° W 22:14:27 15° S
ERS-1 Rocket 3.1 22:07:42 22° SE 22:10:51 60° ENE 22:15:48 10° N
Cosmos 1356 3.5 22:15:41 18° SSW 22:18:10 79° W 22:21:40 10° N
SJ 16-02 1.7 22:14:17 10° N 22:18:37 49° ENE 22:20:27 30° SE
Helios 1B rocket 3.4 22:15:09 10° NE 22:18:46 28° E 22:19:16 27° ESE
Cosmos 2333 Rocket 3.7 22:20:07 10° N 22:24:45 25° NE 22:27:41 17° E
Cosmos 1536 Rocket 3.5 22:21:53 19° S 22:25:02 88° ESE 22:29:32 10° N
CENTAUR R/B 2.9 22:19:57 10° SW 22:25:51 66° NW 22:32:42 10° NNE
Meteor 1-23 Rocket 4.1 22:21:52 13° S 22:26:50 86° E 22:32:26 10° N
COSMOS 2428 3.5 22:22:39 10° N 22:27:59 39° ENE 22:30:38 25° ESE
Resurs 01 Rocket 4.2 22:25:53 10° SW 22:28:30 15° W 22:31:08 10° NW
SPOT 1/Viking Rocket 3.8 22:26:20 29° SE 22:28:44 54° ENE 22:33:46 10° N
CZ-4C R/B 3.5 22:23:53 10° NNW 22:30:47 48° NE 22:35:47 22° ESE
Meteor 1-29 4.4 22:28:57 10° NE 22:31:16 24° ENE 22:31:16 24° ENE
H-2A R/B 2.2 22:29:03 22° S 22:32:11 68° WSW 22:37:14 10° NNW
Aureole 2 Rocket 3.3 22:30:41 10° NW 22:33:16 30° WSW 22:33:53 27° SW
SL-08 RB Rocket 4.0 22:30:45 24° S 22:33:25 62° W 22:37:58 10° NNW
Cosmos 1125 Rocket 3.6 22:30:44 10° NNW 22:35:57 61° ENE 22:38:03 35° SE
Lacrosse 5 rocket 1.3 22:32:34 10° NW 22:36:54 85° NE 22:38:05 46° SE
Cosmos 1515 4.3 22:35:38 19° SSW 22:38:13 54° W 22:42:00 10° N
ARGOS 4.0 22:37:57 16° SSW 22:41:59 45° W 22:47:10 10° NNW
Cosmos 1092 Rocket 4.4 22:37:10 10° N 22:43:20 50° ENE 22:45:54 32° SE
Cosmos 2297 Rocket 4.0 22:44:24 14° E 22:44:24 14° E 22:46:29 10° ENE
Nadezhda 4 Rocket 4.0 22:38:35 10° N 22:44:56 76° E 22:48:05 32° SSE
Cosmos 2227 Rocket 3.8 22:47:43 18° E 22:47:43 18° E 22:50:42 10° ENE
Cosmos 2322 Rocket 4.0 22:45:20 10° NW 22:49:41 23° WSW 22:53:53 11° SSW
Cosmos 2322 3.7 22:44:45 10° NNW 22:50:30 78° WSW 22:52:56 36° S
DMSP B5D2-2 4.2 22:48:20 10° N 22:53:37 77° WNW 22:57:06 22° SSW
Cosmos 2237 Rocket 3.8 22:49:32 10° N 22:54:05 24° NE 22:56:28 18° E
CARTOSAT-1 3.7 22:56:13 50° ESE 22:56:55 58° ENE 23:01:10 10° N
Centaur D-1AR AC-36 4.3 22:43:59 10° WSW 22:57:16 22° SSW 22:58:59 20° S
Landsat 7 3.7 22:57:52 48° SSE 22:59:12 85° E 23:04:00 10° NNW
SL-16 R/B 4.3 22:56:03 10° WNW 22:59:47 18° W 23:03:30 10° SW
Cosmos 1066 Rocket 4.0 22:58:35 40° S 23:00:33 75° E 23:06:01 10° NNE
MINOTAUR IV R/B 4.5 23:01:48 48° S 23:03:04 81° ESE 23:07:40 10° NNE
Cosmos 1025 Rocket 3.1 23:04:19 45° SSW 23:05:35 74° W 23:09:58 10° N
Cosmos 2026 Rocket 4.2 23:05:40 10° N 23:11:40 52° E 23:13:15 41° ESE
Cosmos 2279 Rocket 4.5 23:14:02 38° ESE 23:15:11 42° E 23:20:57 10° NNE
Cosmos 1544 3.2 23:12:13 10° N 23:15:35 69° NNE 23:15:35 69° NNE
Cosmos 1606 Rocket 3.7 23:11:43 10° N 23:16:07 58° E 23:16:17 57° E
STPSAT 2 (USA 217) 4.5 23:16:52 70° SSE 23:17:17 77° ESE 23:21:54 10° NNE
Terra 1.7 23:17:13 63° SSE 23:17:59 86° ENE 23:22:46 10° NNW
SPOT 5 3.5 23:17:09 36° SW 23:18:16 44° W 23:22:39 10° NNW
Cosmos 2219 3.1 23:16:32 38° SSW 23:18:54 85° ESE 23:24:41 10° NNE
Cosmos 1766 3.8 23:18:23 10° N 23:21:51 48° NE 23:21:51 48° NE
Spot 1 4.0 23:22:31 66° SW 23:22:44 67° WSW 23:26:47 10° NNW
Meteor 1-22 Rocket 4.0 23:19:43 10° N 23:25:02 69° E 23:25:51 59° SE
Cosmos 2142 Rocket 4.4 23:25:48 49° SSE 23:27:31 75° E 23:33:44 10° N
Helios 1A 4.4 23:28:05 26° WSW 23:28:55 28° W 23:32:33 10° NW
YAOGAN 11 4.0 23:32:52 79° SSW 23:33:04 83° WSW 23:37:37 10° NNW
ISS -0.6 23:32:36 10° NNW 23:33:51 12° N 23:35:06 10° NNE
Tiangong 2 3.3 23:31:05 10° WNW 23:32:27 23° WNW 23:32:27 23° WNW
CZ-2C R/B 2.7 23:31:18 10° NNE 23:36:56 67° ESE 23:37:37 61° SE
Cosmos 2360 Rocket 3.9 23:34:30 10° NW 23:38:40 22° W 23:40:45 18° SW
Mayak 1.2 23:36:08 10° NE 23:37:00 13° ENE 23:37:00 13° ENE
Cosmos 2195 Rocket 4.4 23:33:27 10° N 23:39:37 82° W 23:41:12 53° S
Cosmos 1627 Rocket 4.4 23:34:10 10° N 23:40:21 85° W 23:41:49 55° S
Cosmos 1428 Rocket 4.4 23:36:13 10° N 23:42:21 70° E 23:43:29 57° SE
Cosmos 2219 Rocket 2.1 23:36:58 10° NNW 23:42:33 74° WSW 23:43:21 63° SSW
H-2A R/B 4.4 23:43:33 13° ENE 23:43:44 13° ENE 23:45:46 10° NE
Cosmos 1634 Rocket 4.2 23:42:54 39° SSW 23:45:20 67° W 23:51:39 10° N
Spot 4 3.9 23:48:10 66° E 23:48:15 66° ENE 23:53:03 10° N
Cosmos 1892 Rocket 3.7 23:51:39 68° NW 23:51:39 68° NW 23:55:45 10° N
Intercosmos 25 3.8 23:52:28 63° N 23:52:28 63° N 23:55:23 10° N
Cosmos 1842 4.0 23:56:15 50° N 23:56:15 50° N 23:59:14 10° N
SJ 16-02 3.7 23:54:25 10° WNW 23:56:43 14° W 23:57:27 14° WSW
